Port Angeles, WA
on Wednesday, February 20, 2013

Wednesday
Previous Day Next Day
Daily Summary
 ActualAverageRecord
Temperature
Mean Temperature °F °F  
Max Temperature 45°F 48°F 60°F (1954)
Min Temperature 32°F 36°F 18°F (1986)
Degree Days
Heating Degree Days 26    
Moisture
Dew Point 33°F   
Average Humidity 78    
Maximum Humidity 89    
Minimum Humidity 61    
Precipitation
Precipitation 0.00 in in in ()
Wind
Wind Speed 8 mph   
Max Wind Speed 13 mph   
Max Gust Speed mph   
Visibility 10 miles   
Events Rain   
Averages and records for this station are not official NWS values.
Key: T is trace of precipitation, MM is missing value
Source: NWS Daily Summary
Seasonal Weather Averages
Time(PST)TemperatureDew PointHumidity Pressure Visibility Wind DirectionWind SpeedGust SpeedPrecipitationEvents Conditions
12:53 AM 36.0°F 30.9°F 82% 30.00 in 10.0 miles WSW 9.2 mph - N/A   Clear
1:53 AM 37.9°F 30.0°F 73% 30.01 in 10.0 miles WSW 10.4 mph - N/A   Clear
2:53 AM 37.9°F 28.9°F 70% 30.02 in 10.0 miles WSW 12.7 mph - N/A   Clear
3:34 AM 36.0°F 28.9°F 76% 30.01 in 10.0 miles WSW 10.4 mph - N/A   Mostly Cloudy
3:43 AM 36.0°F 28.9°F 76% 30.01 in 10.0 miles WSW 9.2 mph - N/A   Scattered Clouds
3:53 AM 37.0°F 28.9°F 73% 30.01 in 10.0 miles WSW 10.4 mph - N/A   Partly Cloudy
4:53 AM 37.4°F 28.4°F 70% 30.01 in 10.0 miles SW 9.2 mph - N/A   Clear
5:53 AM 32.0°F 28.0°F 85% 30.01 in 10.0 miles WSW 5.8 mph - N/A   Clear
6:53 AM 34.0°F 28.9°F 82% 30.01 in 10.0 miles SW 6.9 mph - N/A   Clear
7:53 AM 35.1°F 30.0°F 82% 30.00 in 10.0 miles SW 6.9 mph - N/A   Partly Cloudy
8:53 AM 37.0°F 30.9°F 79% 30.00 in 10.0 miles WSW 5.8 mph - N/A   Clear
9:53 AM 39.9°F 33.1°F 77% 30.00 in 10.0 miles West 3.5 mph - N/A   Partly Cloudy
10:53 AM 44.6°F 32.0°F 61% 29.98 in 10.0 miles Calm Calm - N/A   Mostly Cloudy
11:53 AM 44.1°F 36.0°F 73% 29.99 in 10.0 miles East 4.6 mph - N/A   Overcast
12:53 PM 45.0°F 36.0°F 71% 29.98 in 10.0 miles East 6.9 mph - N/A   Overcast
1:53 PM 45.0°F 34.0°F 65% 29.97 in 10.0 miles East 8.1 mph - N/A   Mostly Cloudy
2:53 PM 44.1°F 35.1°F 71% 29.96 in 10.0 miles East 6.9 mph - 0.00 in Rain Light Rain
3:53 PM 43.0°F 37.0°F 80% 29.97 in 10.0 miles ESE 9.2 mph - 0.00 in Rain Light Rain
4:53 PM 43.0°F 37.0°F 80% 29.97 in 10.0 miles ESE 4.6 mph - 0.00 in   Overcast
5:53 PM 41.0°F 35.1°F 79% 29.97 in 10.0 miles Calm Calm - N/A   Mostly Cloudy
6:53 PM 37.9°F 35.1°F 89% 29.98 in 10.0 miles WSW 4.6 mph - N/A   Overcast
7:53 PM 41.0°F 35.6°F 81% 29.98 in 10.0 miles WSW 8.1 mph - N/A   Overcast
8:53 PM 39.9°F 35.1°F 83% 29.99 in 10.0 miles West 8.1 mph - N/A   Overcast
9:53 PM 39.9°F 36.0°F 86% 29.99 in 10.0 miles WSW 6.9 mph - N/A   Mostly Cloudy
10:01 PM 39.9°F 36.0°F 86% 29.99 in 10.0 miles West 8.1 mph - N/A   Mostly Cloudy
10:53 PM 41.0°F 37.0°F 86% 29.99 in 10.0 miles WSW 9.2 mph - N/A   Overcast
11:53 PM 41.0°F 36.0°F 82% 30.00 in 10.0 miles West 8.1 mph - N/A   Overcast
Moon Phase
Feb. 20 Feb. 25 Mar. 04 Mar. 11 Mar. 19
Sunrise:07:11 AM (PST) Moon Rise:12:57 PM (PST)
Sunset:05:44 PM (PST) Moon Set:03:49 AM (PST)

Copyright © 2014 The Weather Underground, Inc.